Home   Weather   Aix-en-Provence   Past weeks

Flag for France Past Weather in Aix-en-Provence, Provence-Alpes-Côte d'Azur, France — Yesterday and Last 2 Weeks

Now
66 °F

Sunny.


Feels Like: 66 °F
Forecast: 51 / 61 °F
Wind: 17 mph from Southeast

Location: Marseille / Marignane

Current Time: Apr 25, 2017 at 12:54:46 pm

Latest Report: Apr 25, 2017 at 12:00 pm


Visibility: 10 mi

Pressure: 29.89 "Hg

Humidity: 46%

Dew Point: 45 °F

Location of Aix-en-ProvenceLocation

Past Weather in Aix-en-Provence — Graph

°F

Aix-en-Provence Temperature Yesterday

Maximum temperature yesterday: 66 °F (at 11:30 am)
Minimum temperature yesterday: 52 °F (at 4:30 am)
Average temperature yesterday: 60 °F

High & Low Weather Summary for the Past Weeks

 TemperatureHumidityPressure
High77 °F (Apr 13, 3:30 pm)100% (Apr 23, 1:00 am)30.36 "Hg (Apr 23, 1:00 am)
Low37 °F (Apr 21, 6:00 am)20% (Apr 18, 3:30 pm)29.86 "Hg (Apr 13, 4:00 pm)
Average60 °F51%30.06 "Hg
* Reported Apr 10 11:00 am — Apr 25 11:30 am, Aix-en-Provence, Weather by CustomWeather, © 2017

Note: Actual official high and low records may vary slightly from our data, if they occured in-between our weather recording intervals... More about our weather records

Advertising

Aix-en-Provence Weather History for the Previous 24 Hours

Scroll right to see more
 ConditionsComfort  
Time TempWeatherWind HumidityBarometerVisibility
11:30 am
Tue, Apr 25
66 °FSunny.16 mph43%29.89 "Hg10 mi
11:00 am66 °FSunny.13 mph49%29.89 "Hg10 mi
10:30 am64 °FPartly sunny.10 mph52%29.92 "HgN/A
10:00 am63 °FSunny.12 mph59%29.92 "Hg10 mi
9:00 am61 °FPassing clouds.9 mph63%29.92 "HgN/A
8:30 am57 °FSunny.10 mph72%29.92 "Hg10 mi
7:30 am54 °FBroken clouds.9 mph77%29.95 "HgN/A
7:00 am54 °FBroken clouds.9 mph77%29.92 "HgN/A
6:30 am54 °FPassing clouds.8 mph72%29.95 "HgN/A
5:30 am52 °FClear.6 mph77%29.95 "Hg10 mi
4:30 am54 °FClear.5 mph72%29.95 "Hg10 mi
3:30 am52 °FClear.3 mph72%29.98 "Hg10 mi
3:00 am52 °FClear.5 mph77%29.98 "Hg10 mi
2:30 am52 °FClear.2 mph77%29.98 "Hg10 mi
2:00 am52 °FClear.2 mph82%29.98 "Hg10 mi
1:30 am54 °FClear.2 mph72%30.01 "Hg10 mi
12:30 am55 °FClear.7 mph72%30.01 "Hg10 mi
12:00 am55 °FClear.6 mph72%30.01 "Hg10 mi
11:30 pm
Mon, Apr 24
55 °FPassing clouds.3 mph72%30.01 "HgN/A
11:00 pm57 °FPassing clouds.6 mph67%30.01 "HgN/A
10:30 pm57 °FClear.6 mph59%30.01 "Hg10 mi
10:00 pm57 °FClear.7 mph59%30.01 "Hg10 mi
9:30 pm57 °FClear.7 mph63%30.01 "Hg10 mi
9:00 pm59 °FClear.12 mph63%30.01 "Hg10 mi
8:30 pm61 °FSunny.13 mph63%30.01 "Hg10 mi
8:00 pm61 °FSunny.13 mph63%30.01 "Hg10 mi
7:30 pm63 °FSunny.14 mph59%30.01 "Hg10 mi
7:00 pm64 °FSunny.15 mph56%30.01 "Hg10 mi
6:30 pm64 °FSunny.17 mph56%30.01 "Hg10 mi
6:00 pm66 °FSunny.17 mph52%30.01 "Hg10 mi
5:30 pm66 °FSunny.18 mph52%30.01 "Hg10 mi
5:00 pm66 °FSunny.16 mph52%30.01 "Hg10 mi
4:30 pm66 °FSunny.18 mph56%30.04 "Hg10 mi
4:00 pm66 °FSunny.16 mph56%30.04 "Hg10 mi
3:30 pm64 °FSunny.20 mph64%30.07 "Hg10 mi
3:00 pm66 °FSunny.16 mph56%30.07 "Hg10 mi
2:00 pm66 °FPartly sunny.16 mph60%30.07 "HgN/A
1:30 pm66 °FSunny.14 mph60%30.07 "Hg10 mi
1:00 pm66 °FSunny.13 mph60%30.07 "Hg10 mi
12:30 pm66 °FSunny.12 mph60%30.07 "HgN/A
12:00 pm66 °FClear.8 mph52%30.09 "HgN/A
Weather by CustomWeather, © 2017

See weather overviewHow to use our weather pages